[[{"header":{"parameterUnit":"m.s-1","parameterCategory":1,"la1":30.2991,"la2":30.254,"lo1":-89.0895,"lo2":-89.0444,"dy":0.0017,"dx":0.0017,"nx":28,"ny":28,"refTime":"2025-06-05T09:00:00:Z","depth":0,"parameterNumber":2,"parameterNumberName":"U-component_of_WINDS"},"data":[0,0,0,0,0,0,0,0,0,0,0,0,0,0,0,0,0,0,0,0,0,0,0,0,0,0,0,0,0,0,0,0,0,0,0,0,0,0,0,0,0,0,0,0,0,0,0,0,0,0,0,0,0,0,0,0,0,0,1.6006,1.6007,0,1.6138,1.614,1.6141,1.6205,1.6205,1.6205,1.6205,1.6345,1.6349,1.6352,0,0,0,0,0,0,0,0,0,0,0,0,0,1.5815,1.5818,1.6006,1.6007,1.6009,1.6138,1.614,1.6141,1.6205,1.6205,1.6205,1.6205,1.6344,1.6348,1.6353,0,0,0,0,0,0,0,0,0,0,0,0,0,1.5917,1.5819,1.6005,1.6056,1.6062,1.6137,1.614,1.6142,1.6205,1.6205,1.6205,1.6205,1.6342,1.6348,1.6353,1.6389,0,0,1.637,1.6373,0,0,0,0,0,0,0,0,1.5911,1.5924,1.6047,1.6053,1.606,1.6155,1.6124,1.6225,1.6206,1.6151,1.6205,1.6205,1.6282,1.6293,1.6318,1.6396,1.6401,1.6371,1.6374,1.6377,1.6378,0,0,0,0,0,0,0,1.5904,1.5919,1.6058,1.6049,1.6057,1.6075,1.6089,1.6143,1.6215,1.6156,1.6161,1.6175,1.6286,1.6312,1.6321,1.6404,1.6371,1.6376,1.6379,1.6381,1.6521,1.6522,0,0,0,0,0,0,1.5888,1.5913,1.6054,1.6062,1.5984,1.6078,1.6094,1.6125,1.6215,1.6229,1.6175,1.6178,1.6303,1.6315,1.6327,1.6377,1.6377,1.6382,1.6385,1.6521,1.6521,1.6522,0,0,0,0,0,0,1.5884,1.59,1.6049,1.5989,1.6009,1.6081,1.6115,1.6127,1.6154,1.623,1.6243,1.6189,1.6303,1.6319,1.6374,1.6382,1.6384,1.639,1.6521,1.6521,1.6522,1.6475,0,0,0,0,0,0,1.5878,1.5898,1.5911,1.5989,1.6012,1.6091,1.6115,1.613,1.6163,1.6168,1.6246,1.6259,1.6304,1.6365,1.6379,1.639,1.6394,1.652,1.6521,1.6522,1.6476,1.6474,1.6472,0,0,0,0,0,1.5871,1.5892,1.5911,1.5928,1.6029,1.6091,1.6105,1.6155,1.6163,1.6178,1.6227,1.6256,1.6379,1.637,1.6387,1.6399,1.652,1.6521,1.6521,1.6477,1.6474,1.6472,0,0,0,0,0,0,1.5814,1.5903,1.5925,1.5972,1.6023,1.6102,1.6121,1.615,1.6202,1.6204,1.6266,1.6284,1.6333,1.6372,1.636,1.6441,1.6453,1.6457,1.6413,1.6411,1.6409,1.6399,1.6399,0,0,0,0,0,1.5806,1.5848,1.5925,1.5959,1.5984,1.6048,1.6077,1.6112,1.6168,1.6191,1.6244,1.6299,1.6351,1.6383,1.6434,1.6482,1.6502,1.65,1.6498,1.6495,1.6498,1.653,1.653,1.6524,1.6524,1.6524,0,0,1.5792,1.5846,1.5869,1.5949,1.5993,1.6037,1.6066,1.611,1.6144,1.6198,1.6253,1.6295,1.6361,1.6413,1.6438,1.6447,1.6505,1.6496,1.6494,1.6498,1.653,1.6531,1.6531,1.6525,1.6525,1.6525,0,0,1.5788,1.5832,1.5867,1.5911,1.5978,1.6021,1.6029,1.6104,1.6134,1.619,1.6232,1.6275,1.6361,1.6407,1.6441,1.6459,1.6489,1.6474,1.6463,1.6493,1.6493,1.6494,1.6502,1.6504,1.6477,1.6477,1.6477,0,1.5762,1.5828,1.5881,1.5924,1.5959,1.601,1.6047,1.6088,1.6168,1.6192,1.62,1.6312,1.6359,1.6424,1.6429,1.6455,1.6468,1.6465,1.6489,1.649,1.6492,1.65,1.6503,1.6475,1.6475,1.6475,1.6475,0,1.5794,1.5839,1.5859,1.5935,1.5973,1.6013,1.6074,1.6107,1.6139,1.6182,1.6241,1.6301,1.6366,1.6384,1.6416,1.6455,1.6458,1.6476,1.649,1.6489,1.6498,1.6502,1.6472,1.6473,1.6473,1.6474,0,0,1.5755,1.5862,1.5868,1.5905,1.5984,1.6021,1.6065,1.6128,1.6156,1.6211,1.625,1.6324,1.6342,1.6382,1.642,1.6446,1.6459,1.6462,1.6465,1.646,1.6508,1.6493,1.6496,1.6479,1.648,1.6481,1.6503,0,1.5762,1.5841,1.5892,1.5951,1.5996,1.6047,1.6085,1.6139,1.6182,1.6227,1.6275,1.6327,1.6346,1.6371,1.6399,1.6451,1.6469,1.645,1.6519,1.652,1.65,1.65,1.6485,1.6502,1.6506,1.6507,1.6507,0,1.5781,1.5834,1.5898,1.5975,1.5996,1.6029,1.6093,1.6135,1.6199,1.6229,1.6274,1.6313,1.6364,1.6374,1.6447,1.6433,1.6464,1.6494,1.6496,1.6505,1.6513,1.651,1.6509,1.6512,1.6513,1.6513,1.6512,0,1.5748,1.5836,1.5886,1.5916,1.6006,1.6029,1.6068,1.6132,1.6168,1.6225,1.6249,1.6311,1.6346,1.6394,1.645,1.6452,1.6518,1.6532,1.6546,1.6544,1.6557,1.6555,1.6562,1.6576,1.6576,1.6576,1.6576,0,1.5751,1.5788,1.5873,1.5903,1.5948,1.6008,1.6051,1.6095,1.6152,1.6194,1.6242,1.6281,1.6353,1.6401,1.6446,1.65,1.6515,1.6542,1.6554,1.6538,1.6535,1.6559,1.656,1.6577,1.6577,1.6577,1.6576,0,1.5721,1.5778,1.5837,1.5919,1.5941,1.597,1.6041,1.6075,1.6121,1.6174,1.619,1.6263,1.6323,1.6384,1.6465,1.6495,1.6549,1.6564,1.6527,1.6533,1.6544,1.6543,1.6567,1.6574,1.6583,1.6583,1.6582,0,1.5719,1.5749,1.5835,1.5866,1.5904,1.5954,1.5991,1.6053,1.609,1.6167,1.6192,1.6255,1.6309,1.6403,1.6465,1.6528,1.6545,1.655,1.6555,1.6539,1.6547,1.6545,1.6549,1.6547,1.6547,1.6547,1.6546,0,1.571,1.5738,1.5789,1.5851,1.5895,1.5947,1.6001,1.6025,1.6097,1.6137,1.6199,1.6241,1.6325,1.6388,1.6459,1.6502,1.6537,1.6545,1.6551,1.6536,1.6513,1.6527,1.6522,1.6543,1.6544,1.6544,1.6544,1.6544,1.5694,1.5725,1.579,1.5847,1.5895,1.5945,1.5981,1.6033,1.6085,1.6157,1.6191,1.6253,1.632,1.6419,1.6462,1.6513,1.6523,1.6532,1.6535,1.6536,1.6533,1.6505,1.6526,1.6527,1.6527,1.6527,1.6527,0,1.5689,1.5734,1.5786,1.5861,1.5906,1.5935,1.5998,1.6034,1.6088,1.6147,1.62,1.6273,1.6335,1.6403,1.647,1.6498,1.6516,1.6514,1.6513,1.6523,1.652,1.6508,1.6498,1.6498,1.6498,1.6498,1.6498,1.6498,1.5691,1.5744,1.5781,1.586,1.5906,1.5967,1.6,1.6048,1.6096,1.6175,1.6227,1.627,1.6334,1.6407,1.6466,1.6485,1.6508,1.6501,1.6524,1.652,1.6522,1.6524,1.6513,1.6505,1.6505,1.6523,1.6523,1.6523]},{"header":{"parameterUnit":"m.s-1","parameterCategory":1,"la1":30.2991,"la2":30.254,"lo1":-89.0895,"lo2":-89.0444,"dy":0.0017,"dx":0.0017,"nx":28,"ny":28,"refTime":"2025-06-05T09:00:00:Z","depth":0,"parameterNumber":3,"parameterNumberName":"V-component_of_WINDS"},"data":[0,0,0,0,0,0,0,0,0,0,0,0,0,0,0,0,0,0,0,0,0,0,0,0,0,0,0,0,0,0,0,0,0,0,0,0,0,0,0,0,0,0,0,0,0,0,0,0,0,0,0,0,0,0,0,0,0,0,4.9333,4.9334,0,4.9407,4.9408,4.9409,4.9414,4.9413,4.9413,4.9412,4.9478,4.9481,4.9483,0,0,0,0,0,0,0,0,0,0,0,0,0,4.9188,4.919,4.9333,4.9334,4.9335,4.9407,4.9408,4.9409,4.9414,4.9413,4.9412,4.9411,4.9478,4.948,4.9483,0,0,0,0,0,0,0,0,0,0,0,0,0,4.9255,4.9191,4.9333,4.9347,4.9349,4.9407,4.9408,4.9409,4.9414,4.9413,4.9412,4.9411,4.9477,4.948,4.9484,4.9531,0,0,4.9495,4.9497,0,0,0,0,0,0,0,0,4.9251,4.926,4.9344,4.9346,4.9348,4.9401,4.9381,4.945,4.9415,4.9389,4.9412,4.941,4.9453,4.9458,4.9475,4.9534,4.9537,4.9496,4.9498,4.95,4.9501,0,0,0,0,0,0,0,4.9246,4.9257,4.9362,4.9345,4.9348,4.9346,4.9354,4.9394,4.9426,4.9391,4.9392,4.9401,4.9454,4.9471,4.9476,4.9538,4.9496,4.9499,4.9501,4.9503,4.9639,4.964,0,0,0,0,0,0,4.9241,4.9253,4.936,4.9364,4.9296,4.935,4.9359,4.9385,4.9426,4.9431,4.9402,4.9401,4.9465,4.9472,4.9478,4.9537,4.95,4.9503,4.9505,4.9638,4.9639,4.9641,0,0,0,0,0,0,4.9237,4.925,4.9357,4.9309,4.9323,4.9354,4.9382,4.9387,4.9404,4.9434,4.9439,4.9414,4.9464,4.9473,4.9518,4.9539,4.9505,4.9508,4.9636,4.9638,4.964,4.9653,0,0,0,0,0,0,4.9233,4.9249,4.9269,4.931,4.9325,4.9398,4.9384,4.9389,4.9412,4.9411,4.9447,4.9452,4.9464,4.9513,4.9522,4.9544,4.9511,4.9634,4.9637,4.9639,4.9651,4.9655,4.9659,0,0,0,0,0,4.9228,4.9268,4.927,4.9283,4.9352,4.9399,4.9408,4.9424,4.9413,4.9433,4.9452,4.9451,4.9535,4.9517,4.9528,4.9551,4.9633,4.9636,4.9639,4.9649,4.9654,4.9659,0,0,0,0,0,0,4.9225,4.9273,4.9276,4.9331,4.9362,4.94,4.9425,4.9429,4.9461,4.9458,4.9474,4.9482,4.9527,4.9543,4.9522,4.9598,4.9583,4.9588,4.9586,4.9592,4.9596,4.9591,4.9514,0,0,0,0,0,4.9231,4.9269,4.9308,4.9352,4.9368,4.9394,4.9415,4.9425,4.9456,4.9468,4.9491,4.9518,4.9551,4.9572,4.9604,4.9653,4.966,4.9674,4.9678,4.9681,4.9685,4.9712,4.9719,4.9651,4.9651,4.9651,0,0,4.9243,4.9275,4.9297,4.9352,4.9377,4.9414,4.9404,4.9443,4.9469,4.9473,4.9518,4.9536,4.9567,4.9615,4.9637,4.963,4.9706,4.9685,4.9687,4.969,4.9716,4.9723,4.9728,4.9653,4.9653,4.9652,0,0,4.9285,4.9313,4.9353,4.9379,4.9418,4.9435,4.9445,4.9484,4.9496,4.9543,4.9546,4.9576,4.9632,4.9655,4.9674,4.9724,4.9724,4.9734,4.9755,4.9781,4.9787,4.9791,4.981,4.9816,4.9738,4.9738,4.9738,0,4.9294,4.9353,4.9372,4.9412,4.9436,4.9444,4.9484,4.9506,4.9552,4.9567,4.9559,4.9631,4.9652,4.9706,4.9718,4.9733,4.9743,4.973,4.9785,4.979,4.9794,4.9812,4.9819,4.9739,4.9739,4.9739,4.9739,0,4.9362,4.9402,4.943,4.9478,4.9505,4.9544,4.9567,4.9591,4.9598,4.9616,4.9662,4.9688,4.9726,4.9739,4.9745,4.9793,4.9788,4.9782,4.9767,4.9802,4.9818,4.9825,4.974,4.974,4.974,4.9739,0,0,4.9403,4.9464,4.9473,4.9496,4.954,4.9569,4.9608,4.9648,4.9668,4.9699,4.9731,4.9779,4.9774,4.9796,4.9804,4.9827,4.9866,4.9819,4.982,4.9827,4.992,4.9925,4.9932,4.9866,4.9868,4.9869,4.9918,0,4.945,4.9523,4.9542,4.9603,4.964,4.9648,4.9682,4.9711,4.9728,4.9759,4.9776,4.9811,4.9802,4.9815,4.9838,4.9857,4.9885,4.9853,4.9894,4.9896,4.9887,4.9941,4.9946,4.9991,4.9924,4.9925,4.9926,0,4.9514,4.9551,4.9617,4.9657,4.9673,4.9703,4.9742,4.9772,4.9804,4.9815,4.984,4.9847,4.9884,4.9867,4.9919,4.9897,4.9915,4.9926,4.9928,4.9933,4.9913,4.9947,5.0006,5.0013,4.9937,4.9936,4.9935,0,4.9538,4.9603,4.9652,4.967,4.9718,4.9739,4.9759,4.9791,4.9814,4.9846,4.9861,4.9896,4.9915,4.9941,4.9956,4.9942,5.0007,4.999,5.0015,5.0015,5.0029,5.0028,5.0091,5.0039,5.0039,5.0039,5.0039,0,4.9588,4.9628,4.9663,4.9693,4.9737,4.9758,4.98,4.982,4.9848,4.9879,4.9887,4.9916,4.9934,4.9965,4.9976,5.0018,5.0025,5.0034,5.0037,5.0034,5.0033,5.0046,5.0043,5.0041,5.004,5.004,5.004,0,4.9623,4.9648,4.9701,4.9744,4.9755,4.9786,4.982,4.9848,4.9865,4.9905,4.9915,4.9942,4.9979,4.9997,5.0041,5.0049,5.0096,5.0096,5.0086,5.0087,5.0111,5.0109,5.0185,5.0196,5.0137,5.0137,5.0138,0,4.9653,4.9685,4.9732,4.9755,4.9777,4.9814,4.9839,4.9859,4.9884,4.9924,4.9946,4.9984,5.0016,5.0073,5.0094,5.0128,5.013,5.0154,5.0135,5.0131,5.0131,5.0129,5.0132,5.0158,5.0158,5.0159,5.0159,0,4.9705,4.9717,4.9754,4.9796,4.9826,4.9859,4.9891,4.9909,4.9933,4.996,5.0,5.0025,5.0072,5.0109,5.0144,5.0162,5.0164,5.0165,5.0173,5.017,5.0164,5.0168,5.0096,5.0163,5.0163,5.0163,5.0162,5.0162,4.9739,4.9768,4.9806,4.9847,4.9874,4.9905,4.9933,4.9956,4.999,5.0033,5.0041,5.0083,5.0114,5.0163,5.0181,5.0212,5.0207,5.0217,5.022,5.0223,5.0225,5.0159,5.0219,5.0218,5.0218,5.0218,5.0218,0,4.9792,4.9818,4.9856,4.9902,4.9934,4.9937,4.9973,4.9998,5.0036,5.0066,5.0098,5.0143,5.0179,5.0204,5.024,5.026,5.0262,5.0269,5.0267,5.0272,5.0227,5.0218,5.0267,5.0267,5.0267,5.0267,5.0267,5.0267,4.9824,4.9873,4.9889,4.9951,4.9975,5.002,5.004,5.0067,5.0091,5.0143,5.0174,5.0191,5.0219,5.0257,5.0289,5.0295,5.0308,5.0315,5.0321,5.028,5.0274,5.027,5.0261,5.0318,5.0318,5.0363,5.0364,5.0364]}]]